map of FLN home
FLN - Airport
Location
City:  Florianópolis, Santa Catarina, Brazil
Name:Hercílio Luz International Airport
ICAO:SBFL
IATA:FLN

Details
Type:Airport (Aerodrome, Airfield)
Use:Public/Civil, Military, International (customs port of entry)
Latitude:27°40'14"S (-27.670488)
Longitude:48°32'50"W (-48.547180)
Datum:WGS 1984
Elevation:20 ft (6 m)
Variation:19.41°W (WMM2015v2 magnetic declination)
-0.12° annual change
Runways:2
Longest:7546 × 148 ft (2300 × 45 m), paved

Time
Time Zone:UTC-3 (DST-2)
Local Time:

Weather
METAR:SBFL 041400Z 21010KT 9999 FEW030 SCT060 25/18 Q1019
TAF:SBFL 040830Z 0412/0512 22008KT 9999 SCT040 TX24/0416Z TN21/0508Z
BECMG 0412/0414 18012KT
BECMG 0422/0424 16007KT SCT025
RMK PER

Related Locations
Nearby:
Farthest:KKX: 12339 mi / 19857 km
Kikai (Kikaiga Shima) [Kikai Airport], Satsunan Islands, 46, JP

Find:

   beyond  
but within

Other Information
Maps:
NOTAMs:
Links:
Sources:

  
  • flag of Brazil
  • flag of Santa Catarina
  • flag of Florianópolis
  

Sectional Chart

Flight Planning
at skyvector.com

Satellite Image

Google Maps Satellite view

 

Copyright © 2004-2019 Karl L. Swartz. All rights reserved.
The Great Circle Mapper name and logo are trademarks of the Great Circle Mapper.
All other trademarks mentioned herein belong to their respective owners.
Please see credits for attibutions and further copyright information.

  Follow gcmap on Facebook Follow gcmap on Twitter GCmap on LinkedIn

hCard Microformat

Geo Microformat